Overview Statistics Trail Chart Weather Telemetry Raw packets
 

This is the latest recevied weather packets stored in our database for station/object EA3IK-1. If no packets are shown the sender has not sent any weather packets the latest 10 day(s).

<< 1 2 3 4 >>
Time Temp. Humidity Pressure Rain* Wind** Luminosity Snow
1788594496 28.33° C 65% 1020 hPa 0 mm - - -
1788593595 27.22° C 65% 1020 hPa 0 mm - - -
1788592694 26.67° C 65% 1020 hPa 0 mm - - -
1788591793 26.67° C 65% 1019.9 hPa 0 mm - - -
1788590892 26.11° C 63% 1019.8 hPa 0 mm - - -
1788589992 24.44° C 59% 1019.8 hPa 0 mm - - -
1788589091 23.33° C 58% 1019.8 hPa 0 mm - - -
1788588190 23.33° C 57% 1019.6 hPa 0 mm - - -
1788587289 22.78° C 58% 1019.5 hPa 0 mm - - -
1788586388 23.33° C 59% 1019.4 hPa 0 mm - - -
1788585487 23.89° C 58% 1019.2 hPa 0 mm - - -
1788584586 23.89° C 58% 1019.2 hPa 0 mm - - -
1788583708 24.44° C 58% 1019.1 hPa 0 mm - - -
1788582785 24.44° C 58% 1018.9 hPa 0 mm - - -
1788581884 24.44° C 57% 1018.8 hPa 0 mm - - -
1788580983 24.44° C 57% 1018.8 hPa 0 mm - - -
1788580082 24.44° C 56% 1018.8 hPa 0 mm - - -
1788579181 23.89° C 57% 1018.8 hPa 0 mm - - -
1788578280 23.33° C 60% 1018.7 hPa 0 mm - - -
1788577379 23.33° C 62% 1018.6 hPa 0 mm - - -
1788576479 23.89° C 59% 1018.7 hPa 0 mm - - -
1788575578 23.89° C 61% 1018.7 hPa 0 mm - - -
1788574677 23.89° C 60% 1018.6 hPa 0 mm - - -
1788573776 23.89° C 60% 1018.7 hPa 0 mm - - -
1788572875 23.89° C 60% 1018.6 hPa 0 mm - - -

* Rain latest hour (hover to see other rain measurements)
** Current wind speed in m/s (hover to see current wind gust speed)